This demonstration page uses our WeatherBlox Daily Observations layout. Learn more.

Left ArrowRight Arrow

Hourly Observations for December 1, 2021

Temp ( °F °C ) Dew Point ( °F °C ) Humidity (%) Winds ( mph kmh ) Pressure ( in mb ) Visibility ( mi km ) Precip ( " mm )
12:53 am 00:53 Clear 54 12.2 37 2.8 53 53 SW 30 48 29.71 1006 10 16 0.00 0.00
1:53 am 01:53 Clear 55 12.8 38 3.3 53 53 SW 33 54 29.69 1005 10 16 0.00 0.00
2:53 am 02:53 Clear 54 12.2 38 3.3 55 55 SW 26 43 29.70 1006 10 16 0.00 0.00
3:53 am 03:53 Clear 54 12.2 39 3.9 57 57 SW 24 39 29.68 1005 10 16 0.00 0.00
4:53 am 04:53 Clear 56 13.3 39 3.9 53 53 SW 24 39 29.67 1005 10 16 0.00 0.00
5:53 am 05:53 Clear 56 13.3 39 3.9 53 53 SW 17 28 29.68 1005 10 16 0.00 0.00
6:53 am 06:53 Clear 53 11.7 39 3.9 59 59 WSW 14 22 29.70 1006 10 16 0.00 0.00
7:53 am 07:53 Sunny 52 11.1 39 3.9 61 61 WSW 8 13 29.70 1006 10 16 0.00 0.00
8:53 am 08:53 Sunny 51 10.6 39 3.9 64 64 WSW 6 9 29.72 1006 10 16 0.00 0.00
9:53 am 09:53 Sunny 58 14.4 41 5 53 53 WSW 3 6 29.71 1006 10 16 0.00 0.00
10:53 am 10:53 Mostly Sunny 60 15.6 40 4.4 47 47 SW 10 17 29.71 1006 10 16 0.00 0.00
11:53 am 11:53 Sunny 60 15.6 40 4.4 47 47 WSW 10 17 29.69 1005 10 16 0.00 0.00
12:53 pm 12:53 Sunny 68 20 40 4.4 36 36 W 33 54 29.66 1005 10 16 0.00 0.00
1:53 pm 13:53 Sunny 67 19.4 41 5 39 39 W 23 37 29.67 1005 10 16 0.00 0.00
2:53 pm 14:53 Sunny 67 19.4 41 5 39 39 W 37 59 29.70 1006 10 16 0.00 0.00
3:53 pm 15:53 Sunny 64 17.8 42 5.6 45 45 W 32 52 29.71 1006 10 16 0.00 0.00
4:53 pm 16:53 Clear 47 8.3 33 0.6 59 59 NE 12 19 29.78 1009 10 16 0.00 0.00
5:53 pm 17:53 Clear 43 6.1 32 0 65 65 E 9 15 29.83 1010 10 16 0.00 0.00
6:53 pm 18:53 Clear 42 5.6 31 -0.6 65 65 ENE 9 15 29.87 1012 10 16 0.00 0.00
7:53 pm 19:53 Clear 41 5 29 -1.7 62 62 ENE 12 19 29.88 1012 10 16 0.00 0.00
8:53 pm 20:53 Clear 39 3.9 29 -1.7 67 67 ENE 12 19 29.90 1013 10 16 0.00 0.00
9:53 pm 21:53 Clear 38 3.3 29 -1.7 70 70 ENE 13 20 29.90 1013 10 16 0.00 0.00
10:53 pm 22:53 Clear 37 2.8 28 -2.2 70 70 ENE 10 17 29.90 1012 10 16 0.00 0.00
11:53 pm 23:53 Clear 37 2.8 28 -2.2 70 70 ENE 12 19 29.88 1012 10 16 0.00 0.00

Powered by AerisWeather